This is the latest recevied weather packets stored in our database for station/object KI4HRG. If no packets are shown the sender has not sent any weather packets the latest 10 day(s).
| Time | Temp. | Humidity | Pressure | Rain* | Wind** | Luminosity | Snow |
|---|---|---|---|---|---|---|---|
| 1777839639 | 22.22° C | 38% | 1018.9 hPa | 0 mm | - | 597 W/m² | - |
| 1777839338 | 21.11° C | 38% | 1019.2 hPa | 0 mm | - | 624 W/m² | - |
| 1777839034 | 21.11° C | 38% | 1019.2 hPa | 0 mm | - | 586 W/m² | - |
| 1777838731 | 21.67° C | 38% | 1019.2 hPa | 0 mm | - | 591 W/m² | - |
| 1777838427 | 21.11° C | 39% | 1019.2 hPa | 0 mm | - | 585 W/m² | - |
| 1777838125 | 21.67° C | 41% | 1019.3 hPa | 0 mm | - | 610 W/m² | - |
| 1777837821 | 22.78° C | 39% | 1019.4 hPa | 0 mm | - | 642 W/m² | - |
| 1777837519 | 21.67° C | 40% | 1019.4 hPa | 0 mm | - | 632 W/m² | - |
| 1777837218 | 21.67° C | 39% | 1019.6 hPa | 0 mm | - | 614 W/m² | - |
| 1777836915 | 21.67° C | 37% | 1019.8 hPa | 0 mm | - | 639 W/m² | - |
| 1777836610 | 21.67° C | 38% | 1020 hPa | 0 mm | - | 653 W/m² | - |
| 1777836307 | 21.11° C | 39% | 1020 hPa | 0 mm | - | 655 W/m² | - |
| 1777836002 | 20.56° C | 39% | 1020.1 hPa | 0 mm | - | 670 W/m² | - |
| 1777835700 | 20.56° C | 40% | 1020 hPa | 0 mm | - | 675 W/m² | - |
| 1777835396 | 20.56° C | 38% | 1020 hPa | 0 mm | - | 696 W/m² | - |
| 1777835093 | 21.11° C | 39% | 1020.3 hPa | 0 mm | - | 712 W/m² | - |
| 1777834791 | 21.11° C | 38% | 1020.4 hPa | 0 mm | - | 696 W/m² | - |
| 1777834487 | 20° C | 39% | 1020.5 hPa | 0 mm | - | 671 W/m² | - |
| 1777834186 | 21.11° C | 36% | 1020.4 hPa | 0 mm | - | 637 W/m² | - |
| 1777833883 | 21.11° C | 38% | 1020.6 hPa | 0 mm | - | 648 W/m² | - |
| 1777833579 | 21.11° C | 39% | 1020.7 hPa | 0 mm | - | 696 W/m² | - |
| 1777833276 | 21.11° C | 38% | 1021 hPa | 0 mm | - | 724 W/m² | - |
| 1777832973 | 20.56° C | 38% | 1021.1 hPa | 0 mm | - | 731 W/m² | - |
| 1777832672 | 21.11° C | 38% | 1021 hPa | 0 mm | - | 721 W/m² | - |
| 1777832369 | 20.56° C | 38% | 1020.9 hPa | 0 mm | - | 740 W/m² | - |
* Rain latest hour (hover to see other rain measurements)
** Current wind speed in m/s (hover to see current wind gust speed)